This is the latest recevied weather packets stored in our database for station/object KC5EZZ-2. If no packets are shown the sender has not sent any weather packets the latest 10 day(s).
| Time | Temp. | Humidity | Pressure | Rain* | Wind** | Luminosity | Snow |
|---|---|---|---|---|---|---|---|
| 1778067086 | 13.33° C | - | - | 0 mm | 4.02 m/s, 28° | - | - |
| 1778066786 | 13.89° C | - | - | 0 mm | 4.47 m/s, 39° | - | - |
| 1778066486 | 13.89° C | - | - | 0 mm | 4.92 m/s, 4° | - | - |
| 1778066183 | 13.89° C | - | - | 0 mm | 4.47 m/s, 347° | - | - |
| 1778065884 | 13.89° C | - | - | 0 mm | 5.81 m/s, 342° | - | - |
| 1778065585 | 13.89° C | - | - | 0 mm | 3.58 m/s, 340° | - | - |
| 1778065282 | 13.89° C | - | - | 0 mm | 3.58 m/s, 345° | - | - |
| 1778064983 | 14.44° C | - | - | 0 mm | 3.13 m/s, 27° | - | - |
| 1778064683 | 13.89° C | - | - | 0 mm | 3.58 m/s, 21° | - | - |
| 1778064381 | 13.89° C | - | - | 0 mm | 3.13 m/s, 10° | - | - |
| 1778064082 | 14.44° C | - | - | 0 mm | 2.68 m/s, 359° | - | - |
| 1778063782 | 14.44° C | - | - | 0 mm | 3.58 m/s, 20° | - | - |
| 1778063480 | 14.44° C | - | - | 0 mm | 2.68 m/s, 23° | - | - |
| 1778063180 | 14.44° C | - | - | 0 mm | 3.58 m/s, 1° | - | - |
| 1778062881 | 14.44° C | - | - | 0 mm | 3.13 m/s, 11° | - | - |
| 1778062578 | 14.44° C | - | - | 0 mm | 3.58 m/s, 28° | - | - |
| 1778062279 | 15° C | - | - | 0 mm | 3.13 m/s, 350° | - | - |
| 1778061980 | 15° C | - | - | 0 mm | 3.13 m/s, 17° | - | - |
| 1778061677 | 14.44° C | - | - | 0 mm | 3.58 m/s, 352° | - | - |
| 1778061378 | 14.44° C | - | - | 0 mm | 3.58 m/s, 356° | - | - |
| 1778061078 | 15° C | - | - | 0 mm | 3.13 m/s, 352° | - | - |
| 1778060776 | 15° C | - | - | 0 mm | 2.68 m/s, 354° | - | - |
| 1778060476 | 15° C | - | - | 0 mm | 2.68 m/s, 326° | - | - |
| 1778060177 | 15° C | - | - | 0 mm | 2.68 m/s, 10° | - | - |
| 1778059875 | 15° C | - | - | 0 mm | 3.13 m/s, 329° | - | - |
* Rain latest hour (hover to see other rain measurements)
** Current wind speed in m/s (hover to see current wind gust speed)